When you browse on this site, cookies collect data to enhance your experience and personalize the content and advertising you see.
Visit our Privacy Policy to learn more. By continuing to use the site, you agree to this use of cookies and data.
  • Em Portugal
  • Lista de países
  • Para 7 dias
  • Temperatura da água
  • Mapas de satélite
  • Mapa do tempo
  • Widgets de tempo
  • user-avatar
    Iniciar Sessão

    Previsão horária em Jeze

    Hoje, 24 Março, Domingo

    Tempo Temperatura Precipitação Vento Pressão Humidade
    00:00 +5°C° 0 mm 4 m/s 755 mmHg 87%
    01:00 +4°C° 0 mm 4 m/s 755 mmHg 86%
    02:00 +4°C° 0 mm 4 m/s 755 mmHg 84%
    03:00 +3°C° 0 mm 3 m/s 755 mmHg 81%
    04:00 +2°C° 0 mm 3 m/s 756 mmHg 79%
    05:00 +1°C° 0 mm 4 m/s 756 mmHg 77%
    06:00 +1°C° 0 mm 4 m/s 756 mmHg 74%
    07:00 +3°C° 0 mm 4 m/s 756 mmHg 72%
    08:00 +4°C° 0 mm 4 m/s 756 mmHg 66%
    09:00 +5°C° 0 mm 4 m/s 756 mmHg 61%
    10:00 +6°C° 0 mm 4 m/s 756 mmHg 56%
    11:00 +7°C° 0 mm 4 m/s 755 mmHg 52%
    12:00 +8°C° 0 mm 4 m/s 755 mmHg 48%
    13:00 +10°C° 0 mm 4 m/s 754 mmHg 44%
    14:00 +10°C° 0 mm 4 m/s 754 mmHg 44%
    15:00 +9°C° 0 mm 3 m/s 753 mmHg 45%
    16:00 +9°C° 0 mm 3 m/s 753 mmHg 45%
    17:00 +8°C° 0 mm 2 m/s 753 mmHg 49%
    18:00 +7°C° 0 mm 2 m/s 752 mmHg 52%
    19:00 +8°C° 0 mm 1 m/s 752 mmHg 56%
    20:00 +7°C° 0 mm 1 m/s 752 mmHg 58%
    21:00 +7°C° 0 mm 1 m/s 751 mmHg 60%
    22:00 +6°C° 0 mm 1 m/s 751 mmHg 63%
    23:00 +6°C° 0 mm 1 m/s 751 mmHg 65%

    Amanhã, 25 Março, Segunda-feira

    Tempo Temperatura Precipitação Vento Pressão Humidade
    00:00 +5°C° 0 mm 1 m/s 750 mmHg 66%
    01:00 +5°C° 0 mm 1 m/s 750 mmHg 68%
    02:00 +4°C° 0 mm 1 m/s 749 mmHg 70%
    03:00 +4°C° 0 mm 1 m/s 748 mmHg 72%
    04:00 +2°C° 0 mm 2 m/s 748 mmHg 74%
    05:00 +3°C° 0 mm 2 m/s 747 mmHg 72%
    06:00 +3°C° 0 mm 2 m/s 747 mmHg 71%
    07:00 +3°C° 0 mm 2 m/s 747 mmHg 69%
    08:00 +4°C° 0 mm 2 m/s 746 mmHg 64%
    09:00 +6°C° 0 mm 2 m/s 746 mmHg 59%
    10:00 +7°C° 0 mm 3 m/s 746 mmHg 54%
    11:00 +7°C° 0.4 mm 3 m/s 746 mmHg 54%
    12:00 +7°C° 0.4 mm 3 m/s 745 mmHg 54%
    13:00 +7°C° 0.4 mm 3 m/s 745 mmHg 55%
    14:00 +7°C° 0.3 mm 3 m/s 745 mmHg 54%
    15:00 +7°C° 0.3 mm 3 m/s 745 mmHg 53%
    16:00 +8°C° 0.3 mm 3 m/s 746 mmHg 52%
    17:00 +5°C° 0.1 mm 3 m/s 746 mmHg 59%
    18:00 +4°C° 0.1 mm 3 m/s 747 mmHg 66%
    19:00 +4°C° 0.1 mm 2 m/s 747 mmHg 74%
    20:00 +2°C° 0 mm 3 m/s 748 mmHg 77%
    21:00 +2°C° 0 mm 3 m/s 748 mmHg 80%
    22:00 +1°C° 0 mm 3 m/s 749 mmHg 84%
    23:00 +1°C° 0 mm 3 m/s 750 mmHg 87%

    Depois de amanhã, 26 Março, Terça-feira

    Tempo Temperatura Precipitação Vento Pressão Humidade
    00:00 0°C° 0 mm 4 m/s 750 mmHg 90%
    01:00 0°C° 0 mm 4 m/s 751 mmHg 93%
    02:00 0°C° 0 mm 4 m/s 751 mmHg 88%
    03:00 0°C° 0 mm 4 m/s 752 mmHg 84%
    04:00 0°C° 0 mm 5 m/s 753 mmHg 80%
    05:00 -1°C° 0 mm 4 m/s 753 mmHg 79%
    06:00 -1°C° 0 mm 4 m/s 753 mmHg 77%
    07:00 -1°C° 0 mm 4 m/s 754 mmHg 76%
    08:00 0°C° 0 mm 4 m/s 754 mmHg 66%
    09:00 +1°C° 0 mm 5 m/s 754 mmHg 57%
    10:00 +3°C° 0 mm 5 m/s 754 mmHg 48%
    11:00 +4°C° 0 mm 6 m/s 754 mmHg 47%
    12:00 +5°C° 0 mm 6 m/s 754 mmHg 46%
    13:00 +6°C° 0 mm 7 m/s 753 mmHg 46%
    14:00 +5°C° 0.1 mm 7 m/s 753 mmHg 48%
    15:00 +5°C° 0.1 mm 6 m/s 753 mmHg 51%
    16:00 +5°C° 0.1 mm 6 m/s 753 mmHg 54%
    17:00 +4°C° 0.1 mm 6 m/s 753 mmHg 59%
    18:00 +3°C° 0.1 mm 5 m/s 754 mmHg 64%
    19:00 +3°C° 0.1 mm 4 m/s 754 mmHg 69%
    20:00 +2°C° 0 mm 3 m/s 755 mmHg 71%
    21:00 +1°C° 0 mm 3 m/s 755 mmHg 73%
    22:00 +1°C° 0 mm 2 m/s 756 mmHg 75%
    23:00 -1°C° 0 mm 2 m/s 756 mmHg 76%

    27 Março, Quarta-feira

    Tempo Temperatura Precipitação Vento Pressão Humidade
    00:00 +1°C° 0 mm 1 m/s 756 mmHg 77%
    01:00 0°C° 0 mm 1 m/s 757 mmHg 78%
    02:00 +1°C° 0 mm 1 m/s 757 mmHg 77%
    03:00 +1°C° 0 mm 1 m/s 757 mmHg 76%
    04:00 +1°C° 0 mm 1 m/s 757 mmHg 76%
    05:00 -1°C° 0 mm 2 m/s 757 mmHg 75%
    06:00 0°C° 0 mm 3 m/s 757 mmHg 75%
    07:00 +1°C° 0 mm 3 m/s 757 mmHg 75%
    08:00 +1°C° 0 mm 4 m/s 757 mmHg 69%
    09:00 +4°C° 0 mm 4 m/s 757 mmHg 62%
    10:00 +6°C° 0 mm 5 m/s 757 mmHg 56%
    11:00 +6°C° 0.1 mm 5 m/s 757 mmHg 56%
    12:00 +7°C° 0.1 mm 5 m/s 757 mmHg 56%
    13:00 +8°C° 0.1 mm 6 m/s 757 mmHg 56%
    14:00 +7°C° 0.4 mm 5 m/s 757 mmHg 64%
    15:00 +6°C° 0.4 mm 5 m/s 756 mmHg 71%
    16:00 +6°C° 0.4 mm 4 m/s 756 mmHg 79%
    17:00 +5°C° 0.2 mm 4 m/s 756 mmHg 83%
    18:00 +5°C° 0.2 mm 3 m/s 757 mmHg 87%
    19:00 +4°C° 0.2 mm 3 m/s 757 mmHg 90%
    20:00 +4°C° 0 mm 3 m/s 757 mmHg 92%
    21:00 +4°C° 0 mm 2 m/s 757 mmHg 94%
    22:00 +4°C° 0 mm 2 m/s 757 mmHg 95%
    23:00 +4°C° 0 mm 2 m/s 757 mmHg 95%

    28 Março, Quinta-feira

    Tempo Temperatura Precipitação Vento Pressão Humidade
    00:00 +4°C° 0 mm 2 m/s 758 mmHg 95%
    01:00 +4°C° 0 mm 2 m/s 758 mmHg 96%
    02:00 +4°C° 0 mm 2 m/s 758 mmHg 96%
    03:00 +5°C° 0 mm 1 m/s 758 mmHg 96%
    04:00 +5°C° 0 mm 1 m/s 758 mmHg 96%
    05:00 +5°C° 0 mm 1 m/s 759 mmHg 95%
    06:00 +5°C° 0 mm 1 m/s 759 mmHg 93%
    07:00 +6°C° 0 mm 1 m/s 759 mmHg 91%
    08:00 +7°C° 0 mm 1 m/s 759 mmHg 87%
    09:00 +8°C° 0 mm 1 m/s 760 mmHg 82%
    10:00 +7°C° 0 mm 2 m/s 760 mmHg 77%
    11:00 +8°C° 0 mm 2 m/s 760 mmHg 73%
    12:00 +9°C° 0 mm 2 m/s 760 mmHg 69%
    13:00 +10°C° 0 mm 3 m/s 760 mmHg 66%
    14:00 +10°C° 0 mm 2 m/s 760 mmHg 64%
    15:00 +10°C° 0 mm 2 m/s 760 mmHg 63%
    16:00 +10°C° 0 mm 2 m/s 760 mmHg 62%
    17:00 +9°C° 0 mm 2 m/s 760 mmHg 67%
    18:00 +8°C° 0 mm 1 m/s 760 mmHg 73%
    19:00 +7°C° 0 mm 1 m/s 760 mmHg 79%
    20:00 +6°C° 0 mm 1 m/s 760 mmHg 81%
    21:00 +6°C° 0 mm 1 m/s 760 mmHg 83%
    22:00 +4°C° 0 mm 0 m/s 760 mmHg 85%
    23:00 +5°C° 0 mm 1 m/s 760 mmHg 85%

    29 Março, Sexta-feira

    Tempo Temperatura Precipitação Vento Pressão Humidade
    00:00 +5°C° 0 mm 1 m/s 761 mmHg 86%
    01:00 +5°C° 0 mm 1 m/s 761 mmHg 86%
    02:00 +4°C° 0 mm 1 m/s 761 mmHg 87%
    03:00 +4°C° 0 mm 1 m/s 760 mmHg 87%
    04:00 +4°C° 0 mm 1 m/s 760 mmHg 88%
    05:00 +5°C° 0 mm 1 m/s 761 mmHg 85%
    06:00 +5°C° 0 mm 1 m/s 761 mmHg 83%
    07:00 +6°C° 0 mm 1 m/s 761 mmHg 80%
    08:00 +7°C° 0 mm 2 m/s 761 mmHg 73%
    09:00 +9°C° 0 mm 2 m/s 761 mmHg 66%
    10:00 +11°C° 0 mm 3 m/s 761 mmHg 59%
    11:00 +12°C° 0 mm 3 m/s 760 mmHg 56%
    12:00 +12°C° 0 mm 4 m/s 760 mmHg 53%
    13:00 +13°C° 0 mm 4 m/s 760 mmHg 50%
    14:00 +13°C° 0 mm 4 m/s 759 mmHg 51%
    15:00 +13°C° 0 mm 4 m/s 759 mmHg 52%
    16:00 +13°C° 0 mm 4 m/s 759 mmHg 52%
    17:00 +12°C° 0 mm 4 m/s 759 mmHg 60%
    18:00 +10°C° 0 mm 3 m/s 759 mmHg 67%
    19:00 +8°C° 0 mm 3 m/s 759 mmHg 75%
    20:00 +8°C° 0 mm 3 m/s 759 mmHg 79%
    21:00 +7°C° 0 mm 3 m/s 759 mmHg 82%
    22:00 +5°C° 0 mm 3 m/s 759 mmHg 86%
    23:00 +5°C° 0 mm 3 m/s 759 mmHg 87%
    Mostrar mais